RA03849 UUBI-URSS

Flight info

Callsign RA03849
Flight time N/A
Altitude 41000
Route ROKUR DCT URIDU T347 ABAGI B105 NIMTA/K0917F420 B105 NATIT DCT MOLED DCT LIDUS G242 ZG DCT ITAKA DCT OBBUD DCT AMKOL DCT GOTIK DCT MEMZA DCT VENFO DCT BINOL
Aircraft C700/M-SBDGHM1RWXY/LB2

Departure

Time 2026-04-27 14:44
Airport Ivanovo South Airport (UUBI)

Arrival

Time N/A
Airport Sochi International Airport (URSS)
Time Latitude Longitude Altitude Speed Heading
2026-04-27 14:09 56.93984 40.94583 408 ft 0 kts 31°
2026-04-27 14:37 56.93985 40.94585 408 ft 0 kts 31°
2026-04-27 14:37 56.93992 40.94592 408 ft 2 kts 32°
2026-04-27 14:37 56.94014 40.94592 405 ft 5 kts 325°
2026-04-27 14:38 56.94038 40.94524 408 ft 7 kts 300°
2026-04-27 14:38 56.94063 40.94443 408 ft 8 kts 288°
2026-04-27 14:38 56.94077 40.94331 408 ft 10 kts 283°
2026-04-27 14:38 56.94084 40.94278 404 ft 1 kts 282°
2026-04-27 14:39 56.94084 40.94276 404 ft 0 kts 282°
2026-04-27 14:39 56.94086 40.94243 408 ft 5 kts 269°
2026-04-27 14:39 56.94071 40.94204 406 ft 8 kts 215°
2026-04-27 14:39 56.94006 40.94130 408 ft 0 kts 211°
2026-04-27 14:40 56.93999 40.94122 408 ft 3 kts 211°
2026-04-27 14:40 56.93960 40.94096 406 ft 9 kts 169°
2026-04-27 14:40 56.93906 40.94233 407 ft 18 kts 122°
2026-04-27 14:40 56.93826 40.94473 411 ft 26 kts 121°
2026-04-27 14:41 56.93726 40.94786 413 ft 29 kts 113°
2026-04-27 14:41 56.93702 40.94942 409 ft 6 kts 120°
2026-04-27 14:41 56.93680 40.94927 410 ft 4 kts 273°
2026-04-27 14:41 56.93690 40.94884 411 ft 0 kts 298°
2026-04-27 14:43 56.93704 40.94836 406 ft 24 kts 300°
2026-04-27 14:43 56.93940 40.94128 410 ft 104 kts 300°
2026-04-27 14:43 56.94428 40.92671 566 ft 155 kts 300°
2026-04-27 14:44 56.95075 40.90890 1102 ft 183 kts 293°
2026-04-27 14:44 56.95203 40.88635 2132 ft 179 kts 251°
2026-04-27 14:44 56.94580 40.86698 3427 ft 183 kts 223°
2026-04-27 14:44 56.93287 40.85898 4340 ft 220 kts 182°
2026-04-27 14:45 56.91864 40.87144 5594 ft 241 kts 138°
2026-04-27 14:45 56.91143 40.89941 6837 ft 258 kts 98°
2026-04-27 14:45 56.91180 40.93254 8173 ft 264 kts 96°
2026-04-27 14:45 56.90613 40.96474 9578 ft 266 kts 118°
2026-04-27 14:46 56.89557 40.99260 10845 ft 273 kts 137°
2026-04-27 14:46 56.88002 41.01365 11685 ft 293 kts 156°
2026-04-27 14:46 56.85995 41.02544 12556 ft 315 kts 173°
2026-04-27 14:46 56.83753 41.03320 13366 ft 341 kts 173°
2026-04-27 14:47 56.81335 41.04129 14280 ft 359 kts 174°
2026-04-27 14:47 56.78865 41.04902 15634 ft 363 kts 174°
2026-04-27 14:47 56.76352 41.05699 16727 ft 371 kts 174°
2026-04-27 14:47 56.73787 41.06536 17714 ft 377 kts 174°
2026-04-27 14:48 56.71183 41.07382 18527 ft 383 kts 174°
2026-04-27 14:48 56.65856 41.09087 20003 ft 394 kts 174°
2026-04-27 14:48 56.63139 41.10005 20728 ft 401 kts 171°
2026-04-27 14:49 56.60464 41.11673 21451 ft 411 kts 160°
2026-04-27 14:49 56.57884 41.14016 22185 ft 417 kts 156°
2026-04-27 14:49 56.55284 41.16436 22854 ft 422 kts 157°
2026-04-27 14:49 56.52687 41.18822 23470 ft 424 kts 156°
2026-04-27 14:50 56.50141 41.21173 25091 ft 396 kts 156°
2026-04-27 14:50 56.47687 41.23437 25977 ft 399 kts 156°
2026-04-27 14:50 56.45189 41.25718 26606 ft 405 kts 156°
2026-04-27 14:50 56.42660 41.28036 27328 ft 409 kts 156°
2026-04-27 14:51 56.40113 41.30374 28043 ft 413 kts 156°
2026-04-27 14:51 56.37534 41.32737 28779 ft 417 kts 156°
2026-04-27 14:51 56.34935 41.35108 29464 ft 421 kts 156°
2026-04-27 14:51 56.32298 41.37509 30046 ft 426 kts 156°
2026-04-27 14:52 56.29641 41.39927 30599 ft 430 kts 156°
2026-04-27 14:52 56.26983 41.42348 31118 ft 435 kts 155°
2026-04-27 14:52 56.24277 41.44809 31643 ft 438 kts 156°
2026-04-27 14:52 56.21538 41.47286 32140 ft 443 kts 156°
2026-04-27 14:53 56.18771 41.49787 32613 ft 447 kts 155°
2026-04-27 14:53 56.15979 41.52312 33074 ft 451 kts 155°
2026-04-27 14:53 56.13155 41.54854 33466 ft 455 kts 155°
2026-04-27 14:53 56.10317 41.57411 33844 ft 458 kts 155°
2026-04-27 14:54 56.07457 41.59991 34209 ft 462 kts 155°
2026-04-27 14:54 56.04575 41.62574 34574 ft 465 kts 156°
2026-04-27 14:54 56.01662 41.65174 34970 ft 467 kts 155°
2026-04-27 14:54 55.98764 41.67768 35475 ft 466 kts 155°
2026-04-27 14:55 55.95866 41.70364 35954 ft 465 kts 156°
2026-04-27 14:55 55.92970 41.72942 36392 ft 465 kts 156°
2026-04-27 14:55 55.90077 41.75497 36839 ft 464 kts 157°
2026-04-27 14:55 55.87065 41.77574 37267 ft 461 kts 166°
2026-04-27 14:56 55.83986 41.78794 37685 ft 458 kts 174°
2026-04-27 14:56 55.80821 41.79329 38072 ft 457 kts 177°
2026-04-27 14:56 55.77649 41.79791 38329 ft 458 kts 176°
2026-04-27 14:56 55.74476 41.80291 38639 ft 458 kts 176°
2026-04-27 14:57 55.71303 41.80766 38918 ft 458 kts 177°
2026-04-27 14:57 55.68128 41.81219 39239 ft 457 kts 177°
2026-04-27 14:57 55.64953 41.81683 39520 ft 457 kts 177°
2026-04-27 14:57 55.61788 41.82270 39806 ft 458 kts 172°
2026-04-27 14:58 55.58686 41.83604 40077 ft 460 kts 165°
2026-04-27 14:58 55.55696 41.85680 40340 ft 463 kts 156°
2026-04-27 14:58 55.49986 41.91220 40374 ft 470 kts 153°
2026-04-27 14:59 55.44257 41.96799 40386 ft 470 kts 153°
2026-04-27 14:59 55.38538 42.02406 40394 ft 470 kts 154°
2026-04-27 15:00 55.32813 42.07958 40408 ft 470 kts 154°
2026-04-27 15:00 55.27128 42.13491 40417 ft 470 kts 154°
2026-04-27 15:01 55.21402 42.19008 40430 ft 469 kts 154°
2026-04-27 15:01 55.15676 42.24529 40441 ft 469 kts 154°
2026-04-27 15:02 55.09949 42.30027 40448 ft 469 kts 154°
2026-04-27 15:02 55.04224 42.35505 40453 ft 469 kts 154°
2026-04-27 15:03 54.98483 42.40981 40460 ft 469 kts 154°
2026-04-27 15:03 54.92753 42.46427 40467 ft 469 kts 153°
2026-04-27 15:04 54.87062 42.51823 40679 ft 466 kts 154°
2026-04-27 15:04 54.84224 42.54512 41082 ft 463 kts 154°
2026-04-27 15:04 54.81390 42.57179 41319 ft 463 kts 154°
2026-04-27 15:05 54.78557 42.59842 41558 ft 464 kts 154°
2026-04-27 15:05 54.75724 42.62512 41801 ft 464 kts 154°
2026-04-27 15:05 54.72836 42.65008 42022 ft 461 kts 161°
2026-04-27 15:05 54.69798 42.66715 42246 ft 459 kts 168°
2026-04-27 15:06 54.66657 42.67649 42483 ft 456 kts 176°
2026-04-27 15:06 54.63479 42.67829 42507 ft 458 kts 182°
2026-04-27 15:06 54.57073 42.67808 42518 ft 461 kts 181°
2026-04-27 15:07 54.50642 42.67806 42528 ft 462 kts 182°
2026-04-27 15:07 54.44249 42.67786 42533 ft 462 kts 182°
2026-04-27 15:08 54.37812 42.67784 42541 ft 462 kts 182°
2026-04-27 15:08 54.31393 42.67766 42544 ft 461 kts 182°
2026-04-27 15:09 54.24969 42.67762 42552 ft 461 kts 182°
2026-04-27 15:09 54.18549 42.67746 42560 ft 461 kts 182°
2026-04-27 15:10 54.12170 42.67738 42571 ft 461 kts 182°
2026-04-27 15:10 54.05756 42.67727 42580 ft 461 kts 182°
2026-04-27 15:11 53.99338 42.67718 42592 ft 461 kts 182°
2026-04-27 15:11 53.92930 42.67706 42598 ft 461 kts 182°
2026-04-27 15:12 53.86518 42.67698 42606 ft 461 kts 182°
2026-04-27 15:12 53.80076 42.67686 42611 ft 461 kts 182°
2026-04-27 15:13 53.73702 42.67677 42617 ft 461 kts 182°
2026-04-27 15:13 53.67288 42.68630 42628 ft 465 kts 169°
2026-04-27 15:14 53.61180 42.72409 42638 ft 469 kts 159°
2026-04-27 15:14 53.55193 42.76712 42648 ft 469 kts 159°
2026-04-27 15:15 53.49213 42.81042 42654 ft 469 kts 160°
2026-04-27 15:15 53.43208 42.85351 42657 ft 469 kts 160°
2026-04-27 15:16 53.37193 42.89663 42659 ft 469 kts 160°
2026-04-27 15:16 53.31193 42.93951 42667 ft 469 kts 160°
2026-04-27 15:17 53.25196 42.98221 42676 ft 469 kts 160°
2026-04-27 15:17 53.19195 43.02483 42677 ft 469 kts 160°
2026-04-27 15:18 53.13195 43.06742 42688 ft 469 kts 159°
2026-04-27 15:18 53.07276 43.11175 42692 ft 469 kts 159°
2026-04-27 15:19 53.01302 43.15580 42694 ft 469 kts 159°
2026-04-27 15:19 52.95346 43.20016 42703 ft 469 kts 159°
2026-04-27 15:20 52.89416 43.24375 42706 ft 469 kts 159°
2026-04-27 15:20 52.83443 43.28784 42716 ft 469 kts 159°
2026-04-27 15:21 52.77477 43.33154 42718 ft 469 kts 159°
2026-04-27 15:21 52.71534 43.37506 42728 ft 469 kts 159°
2026-04-27 15:22 52.65568 43.41856 42725 ft 469 kts 159°
2026-04-27 15:22 52.59597 43.46200 42730 ft 469 kts 159°
2026-04-27 15:23 52.53625 43.50529 42735 ft 469 kts 159°
2026-04-27 15:23 52.47648 43.54850 42741 ft 469 kts 159°
2026-04-27 15:24 52.41677 43.59154 42746 ft 468 kts 159°
2026-04-27 15:24 52.35711 43.63441 42751 ft 468 kts 159°
2026-04-27 15:25 52.29776 43.67692 42757 ft 468 kts 159°
2026-04-27 15:25 52.23812 43.71954 42762 ft 468 kts 160°
2026-04-27 15:26 52.17839 43.76208 42782 ft 468 kts 160°
2026-04-27 15:26 52.12873 43.79737 42769 ft 468 kts 160°
2026-04-27 15:27 52.06900 43.83967 42779 ft 468 kts 160°
2026-04-27 15:27 52.00926 43.88188 42790 ft 468 kts 160°
2026-04-27 15:28 51.94945 43.92400 42795 ft 468 kts 160°
2026-04-27 15:28 51.88966 43.96599 42797 ft 468 kts 160°
2026-04-27 15:29 51.82990 44.00784 42799 ft 468 kts 160°
2026-04-27 15:29 51.77051 44.04931 42808 ft 468 kts 160°
2026-04-27 15:30 51.71074 44.09093 42808 ft 467 kts 160°
2026-04-27 15:30 51.67465 44.11598 42811 ft 467 kts 160°
2026-04-27 15:31 51.61490 44.15740 42816 ft 467 kts 160°
2026-04-27 15:31 51.61204 44.15937 42821 ft 467 kts 160°
2026-04-27 15:32 51.58911 44.17523 42817 ft 467 kts 160°
2026-04-27 15:32 51.52935 44.21647 42820 ft 467 kts 160°
2026-04-27 15:33 51.46990 44.25739 42824 ft 467 kts 161°
2026-04-27 15:33 51.44042 44.27766 42344 ft 459 kts 161°
2026-04-27 15:33 51.41110 44.29779 41843 ft 452 kts 161°
2026-04-27 15:34 51.38266 44.31728 41835 ft 439 kts 161°
2026-04-27 15:34 51.35444 44.33652 41833 ft 443 kts 161°
2026-04-27 15:34 51.29691 44.37572 41842 ft 455 kts 161°
2026-04-27 15:35 51.23825 44.41570 41849 ft 465 kts 161°
2026-04-27 15:35 51.17771 44.45245 41866 ft 462 kts 170°
2026-04-27 15:36 51.11459 44.46462 41864 ft 453 kts 185°
2026-04-27 15:36 51.05177 44.45892 41870 ft 452 kts 187°
2026-04-27 15:37 50.98937 44.45327 41870 ft 451 kts 187°
2026-04-27 15:37 50.92666 44.44729 41877 ft 451 kts 187°
2026-04-27 15:38 50.86401 44.44153 41872 ft 451 kts 187°
2026-04-27 15:38 50.80144 44.43566 41873 ft 450 kts 187°
2026-04-27 15:39 50.73887 44.42990 41873 ft 450 kts 187°
2026-04-27 15:39 50.67635 44.42410 41871 ft 450 kts 187°
2026-04-27 15:40 50.61658 44.41859 41877 ft 449 kts 187°
2026-04-27 15:40 50.55459 44.41290 41880 ft 449 kts 187°
2026-04-27 15:41 50.49221 44.40717 41883 ft 449 kts 187°
2026-04-27 15:41 50.42981 44.40147 41886 ft 448 kts 187°
2026-04-27 15:42 50.36749 44.39578 41889 ft 448 kts 187°
2026-04-27 15:42 50.30519 44.39011 41893 ft 448 kts 187°
2026-04-27 15:43 50.24292 44.38446 41897 ft 448 kts 187°
2026-04-27 15:43 50.18114 44.37887 41900 ft 447 kts 187°
2026-04-27 15:44 50.11889 44.37324 41897 ft 448 kts 188°
2026-04-27 15:44 50.05658 44.36764 41909 ft 448 kts 188°
2026-04-27 15:45 49.99433 44.36204 41913 ft 448 kts 188°
2026-04-27 15:45 49.93202 44.35646 41913 ft 448 kts 188°
2026-04-27 15:46 49.87019 44.35093 41916 ft 447 kts 188°
2026-04-27 15:46 49.80802 44.34540 41921 ft 447 kts 188°
2026-04-27 15:47 49.74584 44.33987 41924 ft 447 kts 188°
2026-04-27 15:47 49.68368 44.33436 41926 ft 447 kts 188°
2026-04-27 15:48 49.62161 44.32889 41932 ft 447 kts 187°
2026-04-27 15:49 49.52848 44.35009 41935 ft 462 kts 166°
2026-04-27 15:49 49.46879 44.38777 41937 ft 463 kts 163°
2026-04-27 15:50 49.40913 44.42548 41938 ft 463 kts 163°
2026-04-27 15:50 49.35008 44.46302 41943 ft 462 kts 163°
2026-04-27 15:51 49.29061 44.50055 41941 ft 461 kts 163°
2026-04-27 15:51 49.23131 44.53799 41948 ft 460 kts 163°
2026-04-27 15:52 49.17214 44.57517 41951 ft 459 kts 164°
2026-04-27 15:52 49.11341 44.61202 41955 ft 459 kts 164°
2026-04-27 15:53 49.05424 44.64903 41959 ft 459 kts 164°
2026-04-27 15:53 48.99500 44.68599 41963 ft 459 kts 164°
2026-04-27 15:54 48.93616 44.72262 41968 ft 459 kts 164°
2026-04-27 15:54 48.87685 44.75945 41968 ft 459 kts 164°
2026-04-27 15:55 48.81855 44.79993 41978 ft 467 kts 156°
2026-04-27 15:55 48.76213 44.84868 41978 ft 467 kts 157°
2026-04-27 15:56 48.70537 44.89731 41976 ft 468 kts 157°
2026-04-27 15:56 48.64869 44.94596 41980 ft 468 kts 157°
2026-04-27 15:57 48.59190 44.99442 41984 ft 469 kts 157°
2026-04-27 15:57 48.53547 45.04255 41985 ft 469 kts 157°
2026-04-27 15:58 48.47851 45.09094 41991 ft 469 kts 157°
2026-04-27 15:58 48.42156 45.13923 41993 ft 469 kts 157°
2026-04-27 15:59 48.36452 45.18745 41991 ft 469 kts 157°
2026-04-27 15:59 48.30756 45.23550 41998 ft 469 kts 157°
2026-04-27 16:00 48.25107 45.28302 41999 ft 468 kts 157°
2026-04-27 16:00 48.19426 45.33069 42010 ft 467 kts 157°
2026-04-27 16:01 48.13744 45.37824 42016 ft 467 kts 157°
2026-04-27 16:01 48.08077 45.42556 42009 ft 465 kts 157°
2026-04-27 16:02 48.02432 45.47256 42013 ft 463 kts 157°
2026-04-27 16:02 47.96806 45.51928 42015 ft 462 kts 157°
2026-04-27 16:03 47.91194 45.56578 42015 ft 461 kts 157°
2026-04-27 16:03 47.85588 45.61210 42022 ft 461 kts 157°
2026-04-27 16:04 47.79986 45.65829 42028 ft 460 kts 157°
2026-04-27 16:04 47.74374 45.70443 42025 ft 460 kts 158°
2026-04-27 16:05 47.68808 45.75010 42032 ft 460 kts 158°
2026-04-27 16:05 47.63184 45.79610 42032 ft 462 kts 158°
2026-04-27 16:06 47.57542 45.84216 42034 ft 463 kts 158°
2026-04-27 16:06 47.51872 45.88831 42041 ft 465 kts 158°
2026-04-27 16:07 47.46192 45.93445 42042 ft 467 kts 158°